Location: Unspecified
(58.9933°N, 5.6375°E)
Time: 20:01:57
(UTC+02:00)

Cosmos 2058 - Visible Passes

Search period start: 24 October 2014 00:00
Search period end: 02 November 2014 23:00
Orbit: 571 x 592 km, 82.5° (Epoch: 23 October)

Date Brightness Start Highest point End Pass type
(mag) Time Alt. Az. Time Alt. Az. Time Alt. Az.
24 Oct 6.1 04:52:37 10° ESE 04:54:29 13° ENE 04:56:21 10° NE visible
24 Oct 3.2 06:26:37 10° S 06:30:48 71° E 06:35:02 10° NNE visible
25 Oct 5.9 04:57:18 10° ESE 04:59:53 16° E 05:02:30 10° NE visible
25 Oct 2.9 06:32:09 10° SSW 06:36:22 90° WNW 06:40:39 10° NNE visible
26 Oct 5.5 04:02:14 10° SE 04:05:19 20° E 04:08:25 10° NE visible
26 Oct 2.8 05:37:46 10° SSW 05:41:58 71° WNW 05:46:14 10° N visible
27 Oct 5.1 04:07:18 10° SE 04:10:45 25° E 04:14:14 10° NNE visible
27 Oct 3.0 05:43:25 10° SSW 05:47:34 55° WNW 05:51:46 10° N visible
28 Oct 4.7 04:13:37 17° SE 04:16:12 31° E 04:19:58 10° NNE visible
28 Oct 3.3 05:50:04 16° SW 05:53:12 44° WNW 05:57:17 10° N visible
29 Oct 4.2 04:20:12 29° SE 04:21:40 40° E 04:25:39 10° NNE visible
29 Oct 3.6 05:56:38 21° WSW 05:58:50 35° WNW 06:02:46 10° N visible
30 Oct 3.7 04:26:35 47° SE 04:27:08 51° E 04:31:17 10° NNE visible
30 Oct 3.8 06:03:00 23° W 06:04:29 29° WNW 06:08:13 10° N visible
31 Oct 6.0 02:56:24 12° ENE 02:56:24 12° ENE 02:57:59 10° NE visible
31 Oct 3.3 04:32:49 65° E 04:32:49 65° E 04:36:53 10° NNE visible
31 Oct 4.1 06:09:14 22° W 06:10:09 24° WNW 06:13:38 10° N visible
01 Nov 5.9 03:02:31 14° ENE 03:02:31 14° ENE 03:04:10 10° NE visible
01 Nov 3.3 04:38:56 59° NNE 04:38:56 59° NNE 04:42:26 10° NNE visible
01 Nov 4.3 06:15:20 19° WNW 06:15:51 20° NW 06:18:59 10° N visible
02 Nov 5.8 03:08:33 16° ENE 03:08:33 16° ENE 03:10:04 10° NE visible
02 Nov 3.7 04:44:56 45° N 04:44:56 45° N 04:47:58 10° NNE visible
02 Nov 4.6 06:21:20 16° WNW 06:21:33 16° NW 06:24:17 10° NNW visible
